STARLINK-5169, 54060

Orbit data source: Space-Track

STARLINK-5169, 54060 is a payload satellite owned by SpaceX/Seattle (US) in LEO that was launched on Thu, 20 Oct 2022 UTC via an FALCON 9 launch vehicle from the Air Force Eastern Test Range (AFETR). Payload-class satellites include a variety of spacecraft equipped with specific instruments for various scientific and technological missions. These include communications satellites like Starlink; space stations such as the ISS; scientific satellites like the Hubble; Earth observation satellites from companies like Planet Labs, Umbra, and HawkEye 360; GPS; miniature CubeSats for education and research; and military/defense satellites.

Loading next visibility...
Identifier
54060, 2022-136K
Orbit
LEO
Country
Flag of USUS
Related business
Manufacturer
SpaceX/Seattle
Mission
Operational Commercial Communications
Bus & Motor
STARLINK, Unknown motor
Mass
305 kg wet, ~290 kg dry
Launch date (UTC)
2022-10-20 (4 years ago)
Launch vehicle
FALCON 9
Launch site
Air Force Eastern Test Range (AFETR)
Object type
Payload
Rocket body
Debris
Shape & HBR
Box + 1 Pan, 10.1 m
Radar Cross Section
13.562 m², Large (>1 m²)

Expand to show TLE details & history
Last TLE update: 2 days ago

TLE from 2 days ago
0 STARLINK-5169
1 54060U 22136K   26171.38905088  .00000208  00000-0  31142-4 0  9992
2 54060  53.1599 212.6278 0001088  81.0409 279.0705 15.08840078202775
Epoch: 2026-06-20T09:20Z
TLE epoch observation values (Epoch: 2026-06-20T09:20:13.996Z)
Latitude
-0.00004°
Longitude
163.96507°
Altitude
540.516 km
Speed
7.593 km/s
True Right ascension
14h 10m 30s
True Declination
0° 00' 00"
Sunlit
Object was in full shadow at epoch
Visualization orbit readout
Latitude
Unknown
Longitude
Unknown
Altitude
Unknown
Speed
Unknown
Apparent Right ascension
Unknown
Apparent Declination
Unknown
Sunlit
N/A
Visualization observer readout
Local Sidereal Time
21:39:22
Azimuth
Unknown
Elevation
Unknown
Doppler factor
Unknown
Orbital elements
Apogee altitude
540.75 km
Perigee altitude
539.245 km
Semi-major axis
6,918.134 km
Eccentricity
0.00011
Inclination
53.1599°
RAAN
212.6278°
Arg. of periapsis
81.0409°
True anomaly
279.05819°
Mean anomaly
279.0705°
Eccentric anomaly
279.06434°
Mean motion
3.7719 °/min
Orbital period
95.44 mins
BSTAR
0.000031142
Loading maneuver chart data...
Computing Atmospheric mass density...
Loading historical data...
Loading historical data...
Loading historical data...
Loading historical data...
Loading historical data...
Loading historical data...
Loading historical data...

Documentation

Showing up to 5 results
|